Regional Weather Roundup
Issued by NWS

Home | Current Version | Previous Version | Text Only | Print | Product List | Glossary On
Versions: 1 2 3 4 5 6 7 8 9 10 11 12 13 14 15 16 17 18 19 20 21 22 23 24 25 26 27 28 29 30 31 32 33 34 35 36 37 38 39 40 41 42 43 44 45 46 47 48 49 50
000
ASUS45 KSLC 271810
RWRUT

UTAH REGIONAL WEATHER ROUNDUP
NATIONAL WEATHER SERVICE SALT LAKE CITY UT
1100 AM MST MON FEB 27 2017

UTZ001>011-023>025-271900-

NORTHERN UTAH

CITY           SKY/WX    TMP DP  RH WIND       PRES   REMARKS
BRIGHAM CITY     N/A     32  27  80 S10       29.68R WCI  24
DUGWAY         PTSUNNY   34  34 100 W3        29.70R
HILL AFB       LGT SNOW  30  27  91 S8        29.66R FOG     WCI  22
LOGAN          CLOUDY    31  26  82 SE5       29.65R WCI  26
OGDEN          LGT SNOW  30  28  92 S9        29.67R FOG     WCI  22
SALT LAKE CITY LGT SNOW  31  29  92 SE8       29.69R VSB 1   WCI  23
TOOELE VALLEY  CLOUDY    32  30  93 E7        29.70R WCI  26
WENDOVER       PTSUNNY   37  19  48 W18       29.70R WCI  27
HEBER CITY     SNOW      27  25  93 E10       29.61R VSB 1/4 WCI  17
WEST JORDAN    CLOUDY    33  33 100 CALM      29.70R VSB 3/4

$$

UTZ011>015-024>027-271900-

CENTRAL/NORTHEAST UTAH

CITY           SKY/WX    TMP DP  RH WIND       PRES   REMARKS
PROVO AIRPORT  LGT SNOW  30  30 100 NW16      29.69R FOG     WCI  19
MOAB/CANYONLAN PTSUNNY   47  25  42 S22       29.69R
DELTA          CLOUDY    41  28  60 SW26G37   29.66S
PRICE          CLOUDY    35  22  58 S5        29.64R WCI  31
ROOSEVELT      CLOUDY    30  21  69 CALM      29.67S
VERNAL         CLOUDY    30  17  58 N5        29.64S WCI  25

$$

UTZ013>016-019>022-027-271900-

SOUTHERN UTAH

CITY           SKY/WX    TMP DP  RH WIND       PRES   REMARKS
BRYCE CANYON   CLOUDY    28  19  69 SW25G31   29.74R WCI  13
CEDAR CITY     CLOUDY    41  21  44 SW23G39   29.70R
MILFORD        CLOUDY    41  27  57 SW32G41   29.70R
ST GEORGE      CLOUDY    52  30  43 SW29      29.78F
HANKSVILLE     MOSUNNY   46  21  36 SW24G38   29.73S
BLANDING       CLOUDY    39  24  53 S23G29    29.88F WCI  29

$$

REGIONAL REPORTS     COLORADO/ARIZONA

CITY           SKY/WX    TMP DP  RH WIND       PRES   REMARKS
CRAIG, CO      CLOUDY    38  20  48 SW23G31   29.60F WCI  27
GRAND JUNCTION CLOUDY    43  26  51 S15       29.71S
RIFLE, CO      CLOUDY    43  23  45 SW14G26   29.69S
MONTROSE, CO   CLOUDY    44  18  35 E17       29.74F
CORTEZ, CO     CLOUDY    42  23  46 S14G24    29.87R
COLORADO CITY  CLOUDY    43  30  61 SW16G23   29.85R
PAGE, AZ       PTSUNNY   50  15  24 SW10G22   29.78S
GRAND CANYON   LGT SNOW  33  28  81 S16G24    29.88F WCI  23
KINGMAN, AZ    CLOUDY    49  19  30 S16G28    29.89R
FLAGSTAFF, AZ  LGT SNOW  30  29  96 SW17G29   29.91F FOG     WCI  18

$$

REGIONAL REPORTS    NEVADA/IDAHO/WYOMING

CITY           SKY/WX    TMP DP  RH WIND       PRES   REMARKS
LAS VEGAS, NV  CLOUDY    54  30  40 S13G22    29.78R
ELY, NY        LGT SNOW  24  20  84 NW14      29.72R FOG     WCI  12
ELKO, NV       PTSUNNY   30  17  58 W13       29.73R WCI  20
POCATELLO, ID  LGT SNOW  27  22  81 NW3       29.64R
BURLEY, ID     LGT SNOW  29  23  78 W18G26    29.68R WCI  16
FORT BRIDGER,  LGT SNOW  23  22  97 S9        29.63R WCI  13
EVANSTON, WY   LGT SNOW  21  18  88 S8        29.59S VSB 3/4 WCI  11
ROCK SPRINGS,  LGT SNOW  22  18  85 W9        29.60S VSB 1   WCI  12
KEMMERER, WY     N/A     23  16  74 S7        29.59  WCI  15

$$



USA.gov is the U.S. government's official web portal to all federal, state and local government web resources and services.